KC8JWT Weather Reports


Display with metric or nautical units.
time (UTC)temp
F
wind
direction
speed
MPH
gust
MPH
rain 1hr
in
rain 24hr
in
rain mn
in
humidity
%
barometer
mb
20260510163648 67 133 2.0 2.0 0.00 0.05 0.05 81 1016.2
20260510163143 65 118 0.0 0.0 0.00 0.05 0.05 83 1016.2
20260510162643 65 141 1.0 2.0 0.00 0.05 0.05 85 1016.1
20260510162140 65 156 0.0 0.0 0.00 0.05 0.05 88 1016.0
20260510161636 65 164 0.0 1.0 0.00 0.05 0.05 87 1015.9
20260510161133 65 164 0.0 0.0 0.00 0.05 0.05 87 1015.8
20260510160630 65 152 0.0 1.0 0.00 0.05 0.05 88 1015.6
20260510160130 64 133 0.0 0.0 0.00 0.05 0.05 89 1015.6
20260510155626 64 100 1.0 2.0 0.00 0.05 0.05 88 1015.3
20260510155122 64 111 0.0 0.0 0.00 0.05 0.05 89 1015.5
20260510154618 63 105 0.0 1.0 0.00 0.05 0.05 90 1015.2
20260510154113 62 117 0.0 0.0 0.00 0.05 0.05 94 1015.2
20260510153609 61 125 0.0 0.0 0.00 0.05 0.05 97 1015.0
20260510153106 61 101 0.0 0.0 0.00 0.05 0.05 99 1015.3
20260510152602 61 111 0.0 0.0 0.00 0.05 0.05 99 1015.2
20260510152059 61 125 0.0 0.0 0.00 0.05 0.05 99 1015.6
20260510151555 60 119 0.0 0.0 0.00 0.05 0.05 99 1015.2
20260510151053 60 133 0.0 0.0 0.00 0.05 0.05 99 1015.2
20260510150547 60 140 0.0 1.0 0.00 0.05 0.05 99 1015.3
20260510150044 60 147 1.0 1.0 0.00 0.05 0.05 99 1015.1
20260510145541 60 130 0.0 1.0 0.00 0.05 0.05 99 1015.2
20260510145037 60 123 0.0 0.0 0.00 0.05 0.05 99 1014.9
20260510144534 60 123 0.0 0.0 0.05 0.05 0.05 99 1014.9
20260510144030 60 123 0.0 0.0 0.05 0.05 0.05 98 1014.9
20260510143525 60 124 0.0 0.0 0.00 0.04 0.04 96 1014.7
20260510143022 61 125 0.0 0.0 0.07 0.04 0.04 95 1015.1
20260510142519 61 118 0.0 0.0 0.07 0.04 0.04 94 1014.9
20260510142015 61 131 0.0 0.0 0.12 0.03 0.03 93 1014.9
20260510141512 61 139 0.0 0.0 0.17 0.03 0.03 90 1014.8
20260510141010 63 123 0.0 0.0 0.05 0.01 0.01 87 1015.2
20260510140506 64 130 0.0 0.0 0.00 0.00 0.00 83 1015.0
20260510140005 65 152 1.0 1.0 0.00 0.00 0.00 81 1014.6
20260510135501 66 162 2.0 2.0 0.00 0.00 0.00 79 1014.5
20260510134958 67 151 0.0 1.0 0.00 0.00 0.00 79 1014.5
20260510134455 67 178 3.0 3.0 0.00 0.00 0.00 78 1014.5
20260510133952 66 167 3.0 3.0 0.00 0.00 0.00 79 1014.3
20260510133448 66 161 3.0 3.0 0.00 0.00 0.00 81 1014.5
20260510132943 66 150 1.0 1.0 0.00 0.00 0.00 81 1014.6
20260510132441 65 152 2.0 3.0 0.00 0.00 0.00 82 1014.6
20260510131938 65 149 1.0 1.0 0.00 0.00 0.00 83 1014.5
20260510131435 63 124 0.0 0.0 0.00 0.00 0.00 85 1014.3
20260510130932 62 173 2.0 2.0 0.00 0.00 0.00 86 1014.2
20260510130429 62 165 2.0 2.0 0.00 0.00 0.00 85 1014.3
20260510125927 62 151 1.0 1.0 0.00 0.00 0.00 86 1014.2
20260510125422 62 162 1.0 2.0 0.00 0.00 0.00 87 1014.1
20260510124919 61 166 1.0 1.0 0.00 0.00 0.00 87 1014.2
20260510124415 61 173 1.0 1.0 0.00 0.00 0.00 88 1014.0
20260510123912 61 168 2.0 2.0 0.00 0.00 0.00 88 1014.2
20260510123407 61 170 1.0 1.0 0.00 0.00 0.00 88 1013.9
20260510122904 61 165 0.0 0.0 0.00 0.00 0.00 88 1014.2
20260510122359 61 165 0.0 1.0 0.00 0.00 0.00 88 1014.0
20260510121855 61 164 0.0 0.0 0.00 0.00 0.00 88 1013.9
20260510121353 61 164 1.0 1.0 0.00 0.00 0.00 87 1014.0
20260510120850 61 163 0.0 0.0 0.00 0.00 0.00 87 1013.9
20260510120348 61 162 1.0 1.0 0.00 0.00 0.00 88 1013.8
20260510115843 60 159 0.0 0.0 0.00 0.00 0.00 89 1013.6
20260510115340 60 159 0.0 0.0 0.00 0.00 0.00 89 1013.8
20260510114836 60 159 0.0 0.0 0.00 0.00 0.00 89 1013.6
20260510114334 60 159 1.0 1.0 0.00 0.00 0.00 89 1013.6
20260510113833 60 156 1.0 1.0 0.00 0.00 0.00 90 1013.5
20260510113330 59 148 0.0 0.0 0.00 0.00 0.00 91 1013.4
20260510112827 59 148 0.0 0.0 0.00 0.00 0.00 91 1013.3
20260510112324 58 155 2.0 2.0 0.00 0.00 0.00 92 1013.0
20260510111820 57 168 2.0 2.0 0.00 0.00 0.00 94 1012.6
20260510111317 57 151 1.0 1.0 0.00 0.00 0.00 96 1012.5
20260510110816 56 149 1.0 1.0 0.00 0.00 0.00 97 1012.6
20260510110314 55 156 0.0 0.0 0.00 0.00 0.00 98 1012.4
20260510105810 55 156 0.0 0.0 0.00 0.00 0.00 98 1012.6
20260510105306 54 156 0.0 0.0 0.00 0.00 0.00 98 1012.3
20260510104801 54 156 0.0 0.0 0.00 0.00 0.00 98 1012.5
20260510104259 54 156 0.0 0.0 0.00 0.00 0.00 97 1012.3
20260510103755 54 156 0.0 0.0 0.00 0.00 0.00 97 1012.4
20260510103252 54 156 0.0 0.0 0.00 0.00 0.00 97 1012.4
20260510102752 54 156 0.0 0.0 0.00 0.00 0.00 97 1012.3
20260510102248 54 156 0.0 0.0 0.00 0.00 0.00 96 1012.2
20260510101745 54 156 0.0 0.0 0.00 0.00 0.00 96 1011.9
20260510101244 55 157 0.0 0.0 0.00 0.00 0.00 96 1011.9
20260510100739 54 162 1.0 1.0 0.00 0.00 0.00 96 1011.8
20260510100238 55 160 0.0 0.0 0.00 0.00 0.00 96 1011.8
20260510095733 55 162 1.0 1.0 0.00 0.00 0.00 97 1011.7
20260510095228 54 163 1.0 1.0 0.00 0.00 0.00 98 1011.8
20260510094727 53 161 0.0 1.0 0.00 0.00 0.00 98 1011.6
20260510094223 53 161 0.0 0.0 0.00 0.00 0.00 98 1011.4
20260510093719 53 161 0.0 0.0 0.00 0.00 0.00 98 1011.4
20260510093216 54 161 0.0 0.0 0.00 0.00 0.00 98 1011.3
20260510092712 53 158 0.0 0.0 0.00 0.00 0.00 98 1011.3
20260510092208 54 158 0.0 0.0 0.00 0.00 0.00 98 1011.2
20260510091704 54 163 0.0 0.0 0.00 0.00 0.00 98 1011.3
20260510091200 53 154 1.0 2.0 0.00 0.00 0.00 98 1011.3
20260510090657 53 158 0.0 0.0 0.00 0.00 0.00 98 1011.1
20260510090154 53 158 0.0 0.0 0.00 0.00 0.00 98 1011.0
20260510085649 53 158 0.0 0.0 0.00 0.00 0.00 97 1011.0
20260510085144 54 158 0.0 0.0 0.00 0.00 0.00 97 1011.1
20260510084641 54 159 0.0 0.0 0.00 0.00 0.00 97 1011.1
20260510084137 54 159 0.0 0.0 0.00 0.00 0.00 97 1011.0
20260510083634 53 157 0.0 0.0 0.00 0.00 0.00 97 1011.0
20260510083131 54 159 0.0 0.0 0.00 0.00 0.00 97 1011.2
20260510082627 54 159 0.0 0.0 0.00 0.00 0.00 97 1011.2
20260510082124 54 159 0.0 0.0 0.00 0.00 0.00 96 1011.2
20260510081623 54 159 0.0 0.0 0.00 0.00 0.00 96 1011.1
20260510081120 54 159 0.0 0.0 0.00 0.00 0.00 96 1011.3
20260510080619 54 159 0.0 0.0 0.00 0.00 0.00 96 1011.1
20260510080116 54 159 0.0 0.0 0.00 0.00 0.00 95 1010.9
20260510075613 55 162 0.0 0.0 0.00 0.00 0.00 94 1010.9
20260510075110 55 162 0.0 0.0 0.00 0.00 0.00 94 1010.7
20260510074607 55 163 2.0 2.0 0.00 0.00 0.00 95 1010.5
20260510074103 55 156 0.0 0.0 0.00 0.00 0.00 94 1010.6
20260510073559 56 156 0.0 0.0 0.00 0.00 0.00 93 1010.7
20260510073056 56 156 0.0 0.0 0.00 0.00 0.00 92 1010.7
20260510072553 57 157 0.0 0.0 0.00 0.00 0.00 92 1010.6
20260510072048 56 163 1.0 1.0 0.00 0.00 0.00 92 1010.8
20260510071545 57 159 1.0 1.0 0.00 0.00 0.00 92 1011.0
20260510071043 57 145 0.0 0.0 0.00 0.00 0.00 92 1010.8
20260510070540 57 155 0.0 0.0 0.00 0.00 0.00 91 1010.9
20260510070037 57 168 1.0 2.0 0.00 0.00 0.00 92 1010.8
20260510065533 56 173 3.0 3.0 0.00 0.00 0.00 93 1010.7
20260510065029 56 150 0.0 1.0 0.00 0.00 0.00 93 1010.6
20260510064526 56 150 0.0 0.0 0.00 0.00 0.00 93 1010.6
20260510064022 56 150 0.0 1.0 0.00 0.00 0.00 94 1010.9
20260510063519 56 142 0.0 0.0 0.00 0.00 0.00 93 1010.7
20260510063017 56 143 0.0 0.0 0.00 0.00 0.00 94 1010.7
20260510062512 56 142 0.0 0.0 0.00 0.00 0.00 94 1010.7
20260510062007 56 142 0.0 0.0 0.00 0.00 0.00 93 1010.7
20260510061505 56 142 0.0 0.0 0.00 0.00 0.00 93 1010.8
20260510061001 56 142 0.0 0.0 0.00 0.00 0.00 93 1010.6
20260510060458 56 142 0.0 0.0 0.00 0.00 0.00 92 1010.7
20260510055954 56 142 0.0 0.0 0.00 0.00 0.00 92 1010.6
20260510055450 57 142 0.0 0.0 0.00 0.00 0.00 92 1010.5
20260510054948 57 142 0.0 0.0 0.00 0.00 0.00 91 1010.7
20260510054443 57 143 0.0 0.0 0.00 0.00 0.00 91 1010.7
20260510053938 57 142 0.0 0.0 0.00 0.00 0.00 90 1010.7
20260510053434 58 142 0.0 0.0 0.00 0.00 0.00 89 1010.8
20260510052930 59 142 0.0 0.0 0.00 0.00 0.00 89 1010.9
20260510052426 59 143 0.0 0.0 0.00 0.00 0.00 88 1010.9
20260510051922 59 156 1.0 1.0 0.00 0.00 0.00 88 1010.9
20260510051419 59 145 0.0 0.0 0.00 0.00 0.00 87 1010.9
20260510050915 60 163 2.0 2.0 0.00 0.00 0.00 87 1010.7
20260510050412 60 143 0.0 0.0 0.00 0.00 0.00 85 1010.7
20260510045910 61 143 0.0 0.0 0.00 0.00 0.00 85 1010.8
20260510045407 61 175 3.0 3.0 0.00 0.00 0.00 85 1011.0
20260510044903 61 169 2.0 2.0 0.00 0.00 0.00 85 1010.8
20260510044400 61 151 1.0 2.0 0.00 0.00 0.00 84 1010.8
20260510043857 61 209 2.0 3.0 0.00 0.00 0.00 84 1010.8
20260510043353 61 161 2.0 2.0 0.00 0.00 0.00 84 1010.9
20260510042851 61 207 2.0 5.0 0.00 0.00 0.00 84 1010.8
20260510042346 62 153 1.0 1.0 0.00 0.00 0.00 83 1010.8
20260510041843 62 157 4.0 5.0 0.00 0.00 0.00 83 1010.8
20260510041340 62 144 4.0 6.0 0.00 0.00 0.00 83 1010.9
20260510040838 62 199 2.0 3.0 0.00 0.00 0.00 83 1010.8
20260510040334 62 207 2.0 2.0 0.00 0.00 0.00 83 1010.8
20260510035829 62 203 2.0 3.0 0.00 0.16 0.16 83 1011.0
20260510035326 62 157 1.0 2.0 0.00 0.16 0.16 83 1010.7
20260510034821 62 0 3.0 5.0 0.00 0.16 0.16 82 1010.8
20260510034319 62 149 2.0 2.0 0.00 0.16 0.16 83 1010.7
20260510033816 62 139 2.0 3.0 0.00 0.16 0.16 83 1010.6
20260510033313 62 165 3.0 3.0 0.00 0.16 0.16 83 1010.6
20260510032809 62 143 0.0 1.0 0.00 0.16 0.16 83 1010.6
20260510032306 61 152 1.0 2.0 0.00 0.16 0.16 83 1010.3
20260510031801 62 170 2.0 2.0 0.00 0.16 0.16 83 1010.6
20260510031258 61 153 2.0 2.0 0.00 0.16 0.16 83 1010.3
20260510030757 62 173 2.0 2.0 0.00 0.16 0.16 83 1010.3
20260510030254 61 174 3.0 3.0 0.00 0.16 0.16 83 1010.1
20260510025751 62 149 1.0 1.0 0.00 0.16 0.16 82 1010.1
20260510025249 62 152 1.0 2.0 0.00 0.16 0.16 82 1010.5
20260510024745 62 152 0.0 1.0 0.00 0.16 0.16 82 1010.2
20260510024242 62 159 1.0 2.0 0.00 0.16 0.16 82 1010.3
20260510023738 61 155 3.0 3.0 0.00 0.16 0.16 82 1009.9
20260510023235 62 152 0.0 0.0 0.00 0.16 0.16 82 1010.0
20260510022732 62 148 0.0 0.0 0.00 0.16 0.16 81 1010.0
20260510022231 62 151 0.0 0.0 0.00 0.16 0.16 81 1010.0
20260510021726 62 157 1.0 1.0 0.00 0.16 0.16 81 1010.0
20260510021224 62 156 1.0 1.0 0.00 0.16 0.16 80 1009.8
20260510020719 62 141 2.0 3.0 0.00 0.16 0.16 80 1009.9
20260510020220 62 139 0.0 1.0 0.00 0.16 0.16 81 1009.7
20260510015716 62 126 0.0 1.0 0.00 0.16 0.16 80 1009.8
20260510015212 62 147 0.0 0.0 0.00 0.16 0.16 80 1009.7
20260510014707 62 148 0.0 0.0 0.00 0.16 0.16 79 1009.5
20260510014200 62 144 0.0 1.0 0.00 0.16 0.16 79 1009.5
20260510013700 63 154 0.0 1.0 0.00 0.16 0.16 78 1009.4
20260510013156 63 146 1.0 1.0 0.00 0.16 0.16 78 1009.3
20260510012655 63 151 1.0 1.0 0.00 0.16 0.16 78 1009.2
20260510012151 63 135 0.0 0.0 0.00 0.16 0.16 78 1009.3
20260510011646 63 153 0.0 0.0 0.00 0.16 0.16 77 1009.2
20260510011142 64 152 0.0 0.0 0.00 0.16 0.16 76 1009.1
20260510010638 64 152 1.0 1.0 0.00 0.16 0.16 76 1008.9
20260510010136 64 145 0.0 0.0 0.00 0.16 0.16 76 1008.8
20260510005631 64 154 1.0 2.0 0.00 0.16 0.16 75 1008.7
20260510005129 64 150 0.0 0.0 0.00 0.16 0.16 75 1008.7
20260510004627 64 157 1.0 1.0 0.00 0.16 0.16 75 1008.5
20260510004124 64 150 0.0 0.0 0.00 0.16 0.16 75 1008.7
20260510003621 65 150 0.0 0.0 0.00 0.16 0.16 74 1008.6
20260510003117 65 144 0.0 0.0 0.00 0.16 0.16 72 1008.7
20260510002612 66 144 0.0 0.0 0.00 0.16 0.16 71 1008.5
20260510002109 67 144 0.0 0.0 0.00 0.16 0.16 70 1008.4
20260510001606 67 153 2.0 2.0 0.00 0.16 0.16 70 1008.3
20260510001105 67 151 1.0 1.0 0.00 0.16 0.16 70 1008.4
20260510000605 68 186 2.0 2.0 0.00 0.16 0.16 68 1008.2
20260509235558 69 124 3.0 3.0 0.00 0.16 0.16 66 1008.3
20260509235055 69 146 0.0 1.0 0.00 0.16 0.16 66 1008.2
20260509234551 69 168 2.0 2.0 0.00 0.16 0.16 65 1008.0
20260509234049 70 137 1.0 1.0 0.00 0.16 0.16 65 1008.1
20260509233547 71 303 3.0 6.0 0.00 0.16 0.16 63 1008.1
20260509233044 72 143 3.0 5.0 0.00 0.16 0.16 62 1008.1
20260509232540 73 136 0.0 1.0 0.00 0.16 0.16 62 1008.1
20260509232037 73 201 3.0 3.0 0.00 0.16 0.16 60 1008.2
20260509231533 75 122 1.0 1.0 0.00 0.16 0.16 60 1008.0
20260509231031 75 170 2.0 2.0 0.00 0.16 0.16 58 1008.1
20260509230528 73 141 0.0 0.0 0.00 0.16 0.16 61 1007.6
20260509230025 73 178 2.0 2.0 0.00 0.16 0.16 60 1007.8
20260509225520 73 214 3.0 3.0 0.00 0.16 0.16 60 1007.9
20260509225016 73 174 1.0 2.0 0.00 0.16 0.16 60 1007.9
20260509224512 74 215 5.0 8.0 0.00 0.16 0.16 59 1008.0
20260509224009 74 200 3.0 5.0 0.00 0.16 0.16 58 1008.0
20260509223505 74 148 2.0 2.0 0.00 0.16 0.16 59 1008.3
20260509223004 74 166 3.0 3.0 0.00 0.16 0.16 58 1008.2
20260509222459 74 217 5.0 6.0 0.00 0.16 0.16 59 1008.0
20260509221954 74 159 3.0 5.0 0.00 0.16 0.16 59 1008.1
20260509221451 74 249 3.0 5.0 0.00 0.16 0.16 58 1008.2
20260509220947 75 284 3.0 5.0 0.00 0.16 0.16 58 1008.1
20260509220443 75 226 5.0 7.0 0.00 0.16 0.16 59 1008.3
20260509215939 73 154 2.0 2.0 0.00 0.16 0.16 60 1008.3
20260509215435 74 217 3.0 5.0 0.00 0.16 0.16 59 1008.3
20260509214932 74 227 6.0 8.0 0.00 0.16 0.16 59 1008.4
20260509214430 75 230 4.0 6.0 0.00 0.16 0.16 58 1008.5
20260509213926 75 197 4.0 5.0 0.00 0.16 0.16 58 1008.7
20260509213422 75 160 2.0 2.0 0.00 0.16 0.16 61 1008.6
20260509212920 75 214 4.0 6.0 0.00 0.16 0.16 59 1008.5
20260509212417 74 204 4.0 5.0 0.00 0.16 0.16 62 1008.6
20260509211913 75 151 2.0 2.0 0.00 0.16 0.16 61 1008.7
20260509211409 74 103 1.0 2.0 0.00 0.16 0.16 60 1008.6
20260509210905 74 214 5.0 7.0 0.00 0.16 0.16 60 1008.5
20260509210403 74 138 3.0 5.0 0.00 0.16 0.16 61 1008.6
20260509205903 74 240 3.0 5.0 0.00 0.16 0.16 61 1008.3
20260509205358 74 151 2.0 2.0 0.00 0.16 0.16 61 1008.5
20260509204855 74 207 4.0 5.0 0.00 0.16 0.16 59 1008.5
20260509204351 74 241 4.0 5.0 0.00 0.16 0.16 61 1008.6
20260509203847 74 214 6.0 8.0 0.00 0.16 0.16 61 1008.6
20260509203344 74 243 4.0 5.0 0.00 0.16 0.16 61 1008.6
20260509202841 71 231 3.0 3.0 0.00 0.16 0.16 64 1008.8
20260509202337 72 225 4.0 5.0 0.00 0.16 0.16 62 1008.7
20260509201837 73 208 4.0 6.0 0.00 0.16 0.16 60 1008.7
20260509201328 73 273 4.0 7.0 0.00 0.16 0.16 62 1008.5
20260509200824 74 213 5.0 7.0 0.00 0.16 0.16 61 1008.8
20260509200320 73 177 3.0 5.0 0.00 0.16 0.16 64 1008.7
20260509195817 72 223 4.0 5.0 0.00 0.16 0.16 65 1009.2
20260509195316 72 223 4.0 5.0 0.00 0.16 0.16 64 1009.4
20260509194816 70 145 2.0 2.0 0.00 0.16 0.16 69 1009.2
20260509194312 70 138 1.0 2.0 0.00 0.16 0.16 69 1009.3
20260509193809 71 199 2.0 3.0 0.00 0.16 0.16 68 1009.2
20260509193309 70 148 1.0 1.0 0.00 0.16 0.16 69 1009.2
20260509192805 71 133 3.0 5.0 0.00 0.16 0.16 67 1009.1
20260509192305 70 112 1.0 2.0 0.00 0.16 0.16 67 1009.4
20260509191756 71 249 5.0 7.0 0.00 0.16 0.16 66 1009.2
20260509191253 72 158 3.0 5.0 0.00 0.16 0.16 66 1009.4
20260509190749 72 256 5.0 7.0 0.00 0.16 0.16 66 1009.6
20260509190246 72 239 4.0 6.0 0.00 0.16 0.16 69 1009.5
20260509185743 72 138 3.0 5.0 0.00 0.16 0.16 65 1009.5
20260509185239 72 201 2.0 3.0 0.00 0.16 0.16 66 1009.3
20260509184737 72 291 5.0 7.0 0.00 0.16 0.16 65 1009.3
20260509184234 71 231 4.0 6.0 0.00 0.16 0.16 67 1009.4
20260509183731 70 190 2.0 3.0 0.00 0.16 0.16 70 1009.3
20260509183226 69 150 3.0 3.0 0.00 0.16 0.16 71 1009.3
20260509182721 70 154 2.0 3.0 0.00 0.16 0.16 68 1009.4
20260509182219 70 145 2.0 2.0 0.00 0.16 0.16 70 1009.3
20260509181717 71 180 5.0 7.0 0.00 0.16 0.16 65 1009.2
20260509181214 69 153 3.0 3.0 0.00 0.16 0.16 69 1009.5
20260509180711 69 148 1.0 2.0 0.00 0.16 0.16 72 1009.5
20260509180207 69 147 6.0 8.0 0.00 0.16 0.16 68 1009.5
20260509175704 69 149 5.0 8.0 0.00 0.16 0.16 67 1009.5
20260509175200 70 143 2.0 3.0 0.00 0.16 0.16 66 1009.3
20260509174657 71 227 3.0 3.0 0.00 0.16 0.16 66 1009.5
20260509174156 70 149 1.0 2.0 0.00 0.16 0.16 67 1009.6
20260509173653 70 179 2.0 2.0 0.00 0.16 0.16 70 1009.6
20260509173149 68 146 2.0 2.0 0.00 0.16 0.16 72 1009.3
20260509172645 68 150 2.0 2.0 0.00 0.16 0.16 70 1009.4
20260509172142 68 207 3.0 5.0 0.00 0.16 0.16 70 1009.6
20260509171637 67 156 5.0 8.0 0.00 0.16 0.16 75 1009.3
20260509171134 66 142 2.0 2.0 0.00 0.16 0.16 73 1009.3
20260509170631 65 111 2.0 2.0 0.00 0.16 0.16 73 1009.3
20260509170127 65 71 4.0 5.0 0.00 0.16 0.16 75 1009.4
20260509165625 64 163 2.0 3.0 0.00 0.16 0.16 80 1009.4
20260509165121 63 147 1.0 2.0 0.00 0.16 0.16 84 1009.2
20260509164617 63 137 1.0 2.0 0.00 0.16 0.16 82 1009.6